Regional Weather Roundup
Issued by NWS

Home | Current Version | Previous Version | Graphics & Text | Print | Product List | Glossary On
Versions: 1 2 3 4 5 6 7 8 9 10 11 12 13 14 15 16 17 18 19 20 21 22 23 24 25 26 27
000
ASUS45 KBOU 111510
RWRCO

WEATHER ROUNDUP FOR COLORADO
NATIONAL WEATHER SERVICE DENVER/BOULDER CO
800 AM MST MON DEC 11 2017

NOTE: "FAIR" INDICATES FEW OR NO CLOUDS BELOW 12000 FEET WITH NO
SIGNIFICANT WEATHER AND/OR OBSTRUCTIONS TO VISIBILITY.

COZ001>005-013-030-031-111600-
...NORTHWEST COLORADO...

CITY           SKY/WX    TMP DP  RH WIND       PRES   REMARKS
CRAIG          FAIR       4  -1  80 CALM      30.55R
HAYDEN         FAIR      16   6  65 E9        30.55R WCI   4
MEEKER         FAIR      13   3  64 CALM      30.54S
RABBIT EARS PA FAIR      23   0  36 W10G18    30.53S WCI  12
STEAMBOAT SPGS FAIR       9   4  82 CALM      30.54S
WALDEN         FAIR       7  -4  61 SE6       30.52R WCI  -3
$$

COZ006>008-011-111600-
...WEST CENTRAL VALLEYS...

CITY           SKY/WX    TMP DP  RH WIND       PRES   REMARKS
GRAND JUNCTION FAIR      20   3  48 E8        30.55S WCI  10
MONTROSE       FAIR      15  -1  49 S8        30.59R WCI   4
EAGLE          FAIR       4   0  83 CALM      30.66S
RIFLE          FAIR      15   3  59 CALM      30.59S
DELTA          FAIR      15  -1  49 CALM      30.58S
NUCLA          FAIR      19  -9  27 SE6       30.58S WCI  11
$$

COZ017>023-064>068-111600-
...SOUTHWEST COLORADO...

CITY           SKY/WX    TMP DP  RH WIND       PRES   REMARKS
DURANGO        FAIR      11  -1  58 NE7       30.49S WCI   0
CORTEZ         FAIR       9  -1  64 NE5       30.51S WCI   1
PAGOSA SPRINGS FAIR      20  -4  33 CALM      30.50S
TELLURIDE      FAIR      27  -3  27 SE8       30.58R WCI  18
WOLF CREEK PAS FAIR      28  -9  19 NW7       30.65S WCI  21
$$

COZ009-010-012-014-032>034-037-058>063-111600-
...CENTRAL COLORADO...

CITY           SKY/WX    TMP DP  RH WIND       PRES   REMARKS
ASPEN          FAIR      12   2  64 CALM      30.54S
BUENA VISTA    FAIR      18   0  44 W8        30.50R WCI   8
COPPER MTN     NOT AVBL
BERTHOUD PASS  FAIR      19   9  63 NW35G44   30.51F WCI  -1
COTTONWOOD PAS FAIR      41  -8  12 CALM      30.52R
GUNNISON       FAIR       3  -5  69 CALM      30.65
KREMMLING      HAZE       1  -4  78 CALM      30.65R VSB 1/2
LEADVILLE      FAIR      20 -11  25 NE10      30.53R WCI   9
MONARCH PASS   FAIR      27  -9  20 W20G28    30.68S WCI  13
SALIDA         FAIR      26  -2  29 W5        30.57S WCI  20
SUNLIGHT       FAIR      27 -18  13 W7        30.62S WCI  19
WILKERSON PASS FAIR      32  -9  16 NW15G29   30.53S WCI  22
$$

COZ069>075-111600-
...SAN LUIS VALLEY/SANGRE DE CRISTO MOUNTAINS...

CITY           SKY/WX    TMP DP  RH WIND       PRES   REMARKS
ALAMOSA        FAIR       6  -5  60 CALM      30.53R
DEL NORTE      FAIR      23  -8  25 W16       30.53R WCI  10
LA VETA PASS   FAIR      28  -9  19 SW15G23     N/A  WCI  17
SAGUACHE       FAIR      19  -8  30 CALM      30.53S
$$

COZ035-036-038>040-111600-
...NORTHERN COLORADO FRONT RANGE...

CITY           SKY/WX    TMP DP  RH WIND       PRES   REMARKS
DENVER INTL AP FAIR      43  -5  13 S10       30.30S
DMNS CITY PARK NOT AVBL
AURORA         PTCLDY    39  -4  16 S10       30.31S
FRONT RANGE AP CLEAR     37   0  20 S7        30.32R
ERIE MUNI ARPT FAIR      23   9  54 CALM      30.37R
BOULDER MUN AP FAIR      36   3  25 S5        30.31R
CENTENNIAL     FAIR      33   2  26 SE6       30.32R WCI  28
BROOMFIELD     CLEAR     41  -2  16 NW9       30.31R
FORT COLLINS   FAIR      30  12  47 CALM      30.32R
LONGMONT       FAIR      26  12  55 S3        30.34R
$$

COZ041-046-047-076>085-087-088-111600-
...PIKES PEAK/PALMER DIVIDE AND SOUTHERN FOOTHILLS...

CITY           SKY/WX    TMP DP  RH WIND       PRES   REMARKS
COLO. SPRINGS  FAIR      39  -4  16 N7        30.36S
A. F. ACADEMY  FAIR      29  -5  22 N6        30.36R WCI  23
SCHRIEVER AFB  FAIR      41  -6  13 CALM      30.36S
CHEYENNE MTN   FAIR      49  -8   9 SW3       30.33R
ELLICOTT         N/A    N/A N/A N/A CALM      30.34R
FALCON         FAIR      35  -7  16 NW5       30.38S WCI  31
FORT CARSON    FAIR      37  -3  18 NW6       30.34R
LIMON          FAIR      25   0  33 N3        30.34R
MONUMENT HILL  FAIR      32  -2  23 SW8       30.38R WCI  25
CANON CITY     FAIR      43  -2  15 W22G28    30.35F
WALSENBURG     NOT AVBL
TRINIDAD       FAIR      33   4  29 W15       30.38S WCI  23
$$

COZ042>045-048>051-090-091-111600-
...NORTHEAST COLORADO...

CITY           SKY/WX    TMP DP  RH WIND       PRES   REMARKS
GREELEY ARPT   FAIR      18   6  59 CALM      30.33R
AKRON          FAIR      32   1  26 NW13      30.30R WCI  22
BURLINGTON     FAIR      34   6  31 W7        30.30R WCI  28
WRAY           FAIR      39   5  24 W9        30.29R
YUMA           FAIR      30   3  31 W10       30.29S WCI  21
STERLING       FAIR      23   9  54 CALM      30.30S
HOLYOKE        FAIR      43   9  24 W15       30.25S
FORT MORGAN    FAIR      24   4  43 W7        30.32S WCI  15
$$

COZ086-089-092>099-111600-
...SOUTHEAST COLORADO...

CITY           SKY/WX    TMP DP  RH WIND       PRES   REMARKS
PUEBLO         FAIR      27   5  39 W8        30.35R WCI  19
LA JUNTA       FAIR      32   3  29 W10       30.35R WCI  24
LAMAR          FAIR      29   3  33 W8        30.33R WCI  21
SPRINGFIELD      N/A     37   4  25 NW10      30.32R
$$




USA.gov is the U.S. government's official web portal to all federal, state and local government web resources and services.